Bekescsaba, Hungary

1:40 PM CET on January 24, 2017 (GMT +0100)
Bekescsaba

Weather History for LHBC - February, 2014

Change the Weather History Date:

Tuesday, February 18, 2014

  Actual Average (LRAR) Record (LRAR)
Temperature  
Mean Temperature 46 °F -  
Max Temperature 52 °F 41 °F 60 °F (2002)
Min Temperature 39 °F 26 °F 3 °F (2003)
Degree Days  
Heating Degree Days 20    
Moisture  
Dew Point 39 °F    
Average Humidity 78    
Maximum Humidity 100    
Minimum Humidity 51    
Precipitation  
Precipitation 0.00 in - - ()
Sea Level Pressure  
Sea Level Pressure 30.22 in    
Wind  
Wind Speed 3 mph ()    
Max Wind Speed 7 mph    
Max Gust Speed -    
Visibility 7.3 miles    
Events      
Averages and records for this station are not official NWS values.
T = Trace of Precipitation, MM = Missing Value Source: Averaged Metar Reports

Daily Weather History Graph

Daily Weather History Graph

Search for Another Location

Airport or City:

Trip Planner

Search our weather history database for the weather conditions in past years. The results will help you decide how hot, cold, wet, or windy it might be!

Date:

Astronomy

Feb. 18, 2014 Rise Set
Actual Time 6:34 AM CET 5:04 PM CET
Civil Twilight 6:03 AM CET 5:35 PM CET
Nautical Twilight 5:28 AM CET 6:10 PM CET
Astronomical Twilight 4:53 AM CET 6:45 PM CET
Moon 8:55 PM CET (2/18) 7:42 AM CET (2/18)
Length of Visible Light 11h 31m
Length of Day
10h 29m
Waning Gibbous, 89% of the Moon is Illuminated
Feb 18
Waning Gibbous
Feb 22
Last Quarter
Mar 1
New
Mar 8
First Quarter
Mar 16
Full

Hourly Weather History & Observations

Time (CET) Temp. Windchill Dew Point Humidity Pressure Visibility Wind Dir Wind Speed Gust Speed Precip Events Conditions
12:00 AM 41 °F - 39 °F 91% 30.16 in - West 4.5 mph - -  
1:00 AM 40 °F - 38 °F 91% 30.17 in - West 4.5 mph - -  
2:00 AM 40 °F - 39 °F 94% 30.18 in - West 2.2 mph - -  
3:00 AM 41 °F - 40 °F 93% 30.19 in - West 2.2 mph - -  
4:00 AM 41 °F - 40 °F 92% 30.19 in - WSW 2.2 mph - -  
4:45 AM 41.0 °F - 39.2 °F 93% 30.18 in 3.7 mi WSW 2.3 mph - N/A   Mostly Cloudy
5:00 AM 40 °F - 39 °F 94% 30.21 in 4 mi WSW 2.2 mph - -   Partly Cloudy
5:45 AM 39.2 °F 37.0 °F 37.4 °F 93% 30.21 in 4.3 mi WSW 3.5 mph - N/A   Mostly Cloudy
6:00 AM 39 °F - 38 °F 94% 30.22 in 4 mi WSW 2.2 mph - -   Partly Cloudy
6:45 AM 39.2 °F - 39.2 °F 100% 30.21 in 3.1 mi SW 2.3 mph - N/A   Mostly Cloudy
7:00 AM 40 °F - 39 °F 93% 30.24 in 3 mi SW 2.2 mph - -   Mist
7:45 AM 41.0 °F - 39.2 °F 93% 30.24 in 3.7 mi Calm Calm - N/A   Mostly Cloudy
8:00 AM 41 °F - 40 °F 93% 30.26 in 4 mi Calm Calm - -   Partly Cloudy
9:00 AM 43 °F - 41 °F 91% 30.27 in - Calm Calm - -  
9:45 AM 46.4 °F - 41.0 °F 81% 30.27 in - NNW 2.3 mph - N/A   Clear
10:00 AM 46 °F - 41 °F 77% 30.27 in 7 mi NNW 2.2 mph - -   Partly Cloudy
11:00 AM 48 °F - 40 °F 67% 30.28 in - Calm Calm - -  
12:00 PM 49 °F - 40 °F 63% 30.27 in - North 2.2 mph - -  
12:45 PM 50.0 °F - 39.2 °F 66% 30.27 in 6.2 mi SSW 5.8 mph - N/A   Mostly Cloudy
1:00 PM 50 °F - 40 °F 59% 30.26 in 12 mi SSW 4.5 mph - -   Partly Cloudy
1:45 PM 51.8 °F - 41.0 °F 67% 30.24 in 6.2 mi SE 5.8 mph - N/A   Scattered Clouds
2:00 PM 52 °F - 40 °F 54% 30.24 in 14 mi SE 6.7 mph - -   Partly Cloudy
2:45 PM 51.8 °F - 39.2 °F 62% 30.24 in 6.2 mi South 3.5 mph - N/A   Scattered Clouds
3:00 PM 51 °F - 40 °F 55% 30.24 in 16 mi South 2.2 mph - -   Partly Cloudy
3:45 PM 51.8 °F - 39.2 °F 62% 30.21 in 6.2 mi SE 2.3 mph - N/A   Scattered Clouds
4:00 PM 52 °F - 39 °F 51% 30.22 in 16 mi SE 2.2 mph - -   Partly Cloudy
5:00 PM 50 °F - 39 °F 56% 30.22 in - South 2.2 mph - -  
6:00 PM 47 °F - 39 °F 65% 30.22 in - South 2.2 mph - -  
6:45 PM 44.6 °F 43.1 °F 39.2 °F 81% 30.21 in - SSE 3.5 mph - N/A   Clear
7:00 PM 45 °F - 39 °F 73% 30.22 in 12 mi SSE 2.2 mph - -   Partly Cloudy
8:00 PM 45 °F - 40 °F 76% 30.22 in - SSE 4.5 mph - -  
9:00 PM 42 °F - 38 °F 79% 30.19 in - ESE 4.5 mph - -  
10:00 PM 42 °F - 38 °F 82% 30.19 in - SE 2.2 mph - -  
11:00 PM 41 °F - 38 °F 85% 30.17 in - SSE 2.2 mph - -